Year,Month,Day,Hour,Minute,Value (Times are PST for temperature in C)
2016,08,25,00,00,17.30
2016,08,25,00,01,17.30
2016,08,25,00,02,17.30
2016,08,25,00,03,17.30
2016,08,25,00,04,17.30
2016,08,25,00,05,17.30
2016,08,25,00,06,17.20
2016,08,25,00,07,17.10
2016,08,25,00,08,17.00
2016,08,25,00,09,16.90
2016,08,25,00,10,16.90
2016,08,25,00,11,16.70
2016,08,25,00,12,16.60
2016,08,25,00,13,16.40
2016,08,25,00,14,16.30
2016,08,25,00,15,16.20
2016,08,25,00,16,16.10
2016,08,25,00,17,16.10
2016,08,25,00,18,16.10
2016,08,25,00,19,16.00
2016,08,25,00,20,15.90
2016,08,25,00,21,15.90
2016,08,25,00,22,15.90
2016,08,25,00,23,15.80
2016,08,25,00,24,15.80
2016,08,25,00,25,15.80
2016,08,25,00,26,15.80
2016,08,25,00,27,15.70
2016,08,25,00,28,15.70
2016,08,25,00,29,15.60
2016,08,25,00,30,15.60
2016,08,25,00,31,15.50
2016,08,25,00,32,15.50
2016,08,25,00,33,15.50
2016,08,25,00,34,15.50
2016,08,25,00,35,15.50
2016,08,25,00,36,15.40
2016,08,25,00,37,15.40
2016,08,25,00,38,15.40
2016,08,25,00,39,15.40
2016,08,25,00,40,15.40
2016,08,25,00,41,15.30
2016,08,25,00,42,15.30
2016,08,25,00,43,15.30
2016,08,25,00,44,15.30
2016,08,25,00,45,15.30
2016,08,25,00,46,15.30
2016,08,25,00,47,15.30
2016,08,25,00,48,15.30
2016,08,25,00,49,15.30
2016,08,25,00,50,15.30
2016,08,25,00,51,15.30
2016,08,25,00,52,15.30
2016,08,25,00,53,15.20
2016,08,25,00,54,15.20
2016,08,25,00,55,15.20
2016,08,25,00,56,15.20
2016,08,25,00,57,15.20
2016,08,25,00,58,15.20
2016,08,25,00,59,15.20
2016,08,25,01,00,15.10
2016,08,25,01,01,15.10
2016,08,25,01,02,15.10
2016,08,25,01,03,15.10
2016,08,25,01,04,15.10
2016,08,25,01,05,15.10
2016,08,25,01,06,15.10
2016,08,25,01,07,15.10
2016,08,25,01,08,15.10
2016,08,25,01,09,15.10
2016,08,25,01,10,15.10
2016,08,25,01,11,15.10
2016,08,25,01,12,15.10
2016,08,25,01,13,15.10
2016,08,25,01,14,15.10
2016,08,25,01,15,15.00
2016,08,25,01,16,15.10
2016,08,25,01,17,15.10
2016,08,25,01,18,15.10
2016,08,25,01,19,15.10
2016,08,25,01,20,15.10
2016,08,25,01,21,15.10
2016,08,25,01,22,15.10
2016,08,25,01,23,15.10
2016,08,25,01,24,15.00
2016,08,25,01,25,15.00
2016,08,25,01,26,15.00
2016,08,25,01,27,15.00
2016,08,25,01,28,15.00
2016,08,25,01,29,15.00
2016,08,25,01,30,15.00
2016,08,25,01,31,15.00
2016,08,25,01,32,14.90
2016,08,25,01,33,14.90
2016,08,25,01,34,14.90
2016,08,25,01,35,14.90
2016,08,25,01,36,14.90
2016,08,25,01,37,14.90
2016,08,25,01,38,14.90
2016,08,25,01,39,14.80
2016,08,25,01,40,14.80
2016,08,25,01,41,14.80
2016,08,25,01,42,14.80
2016,08,25,01,43,14.80
2016,08,25,01,44,14.80
2016,08,25,01,45,14.80
2016,08,25,01,46,14.80
2016,08,25,01,47,14.80
2016,08,25,01,48,14.80
2016,08,25,01,49,14.80
2016,08,25,01,50,14.80
2016,08,25,01,51,14.80
2016,08,25,01,52,14.80
2016,08,25,01,53,14.80
2016,08,25,01,54,14.90
2016,08,25,01,55,14.90
2016,08,25,01,56,15.00
2016,08,25,01,57,15.10
2016,08,25,01,58,15.10
2016,08,25,01,59,15.20
2016,08,25,02,00,15.20
2016,08,25,02,01,15.20
2016,08,25,02,02,15.20
2016,08,25,02,03,15.30
2016,08,25,02,04,15.30
2016,08,25,02,05,15.30
2016,08,25,02,06,15.30
2016,08,25,02,07,15.30
2016,08,25,02,08,15.40
2016,08,25,02,09,15.40
2016,08,25,02,10,15.50
2016,08,25,02,11,15.50
2016,08,25,02,12,15.50
2016,08,25,02,13,15.60
2016,08,25,02,14,15.60
2016,08,25,02,15,15.60
2016,08,25,02,16,15.70
2016,08,25,02,17,15.70
2016,08,25,02,18,15.70
2016,08,25,02,19,15.70
2016,08,25,02,20,15.70
2016,08,25,02,21,15.70
2016,08,25,02,22,15.70
2016,08,25,02,23,15.70
2016,08,25,02,24,15.70
2016,08,25,02,25,15.70
2016,08,25,02,26,15.80
2016,08,25,02,27,15.80
2016,08,25,02,28,15.80
2016,08,25,02,29,15.80
2016,08,25,02,30,15.80
2016,08,25,02,31,15.80
2016,08,25,02,32,15.80
2016,08,25,02,33,15.80
2016,08,25,02,34,15.80
2016,08,25,02,35,15.80
2016,08,25,02,36,15.80
2016,08,25,02,37,15.90
2016,08,25,02,38,15.90
2016,08,25,02,39,15.90
2016,08,25,02,40,15.90
2016,08,25,02,41,16.10
2016,08,25,02,42,16.10
2016,08,25,02,43,16.10
2016,08,25,02,44,16.10
2016,08,25,02,45,16.20
2016,08,25,02,46,16.20
2016,08,25,02,47,16.30
2016,08,25,02,48,16.30
2016,08,25,02,49,16.30
2016,08,25,02,50,16.40
2016,08,25,02,51,16.40
2016,08,25,02,52,16.40
2016,08,25,02,53,16.40
2016,08,25,02,54,16.40
2016,08,25,02,55,16.40
2016,08,25,02,56,16.40
2016,08,25,02,57,16.40
2016,08,25,02,58,16.40
2016,08,25,02,59,16.50
2016,08,25,03,00,16.60
2016,08,25,03,01,16.60
2016,08,25,03,02,16.60
2016,08,25,03,03,16.60
2016,08,25,03,04,16.60
2016,08,25,03,05,16.60
2016,08,25,03,06,16.60
2016,08,25,03,07,16.60
2016,08,25,03,08,16.60
2016,08,25,03,09,16.70
2016,08,25,03,10,16.70
2016,08,25,03,11,16.70
2016,08,25,03,12,16.70
2016,08,25,03,13,16.70
2016,08,25,03,14,16.70
2016,08,25,03,15,16.70
2016,08,25,03,16,16.70
2016,08,25,03,17,16.70
2016,08,25,03,18,16.70
2016,08,25,03,19,16.70
2016,08,25,03,20,16.60
2016,08,25,03,21,16.60
2016,08,25,03,22,16.60
2016,08,25,03,23,16.60
2016,08,25,03,24,16.60
2016,08,25,03,25,16.60
2016,08,25,03,26,16.60
2016,08,25,03,27,16.60
2016,08,25,03,28,16.60
2016,08,25,03,29,16.60
2016,08,25,03,30,16.60
2016,08,25,03,31,16.50
2016,08,25,03,32,16.40
2016,08,25,03,33,16.40
2016,08,25,03,34,16.40
2016,08,25,03,35,16.40
2016,08,25,03,36,16.40
2016,08,25,03,37,16.50
2016,08,25,03,38,16.60
2016,08,25,03,39,16.60
2016,08,25,03,40,16.60
2016,08,25,03,41,16.60
2016,08,25,03,42,16.60
2016,08,25,03,43,16.60
2016,08,25,03,44,16.60
2016,08,25,03,45,16.60
2016,08,25,03,46,16.70
2016,08,25,03,47,16.70
2016,08,25,03,48,16.70
2016,08,25,03,49,16.70
2016,08,25,03,50,16.70
2016,08,25,03,51,16.70
2016,08,25,03,52,16.70
2016,08,25,03,53,16.70
2016,08,25,03,54,16.70
2016,08,25,03,55,16.70
2016,08,25,03,56,16.70
2016,08,25,03,57,16.60
2016,08,25,03,58,16.60
2016,08,25,03,59,16.60
2016,08,25,04,00,16.50
2016,08,25,04,01,16.40
2016,08,25,04,02,16.40
2016,08,25,04,03,16.40
2016,08,25,04,04,16.40
2016,08,25,04,05,16.30
2016,08,25,04,06,16.30
2016,08,25,04,07,16.30
2016,08,25,04,08,16.30
2016,08,25,04,09,16.20
2016,08,25,04,10,16.20
2016,08,25,04,11,16.20
2016,08,25,04,12,16.10
2016,08,25,04,13,16.10
2016,08,25,04,14,16.10
2016,08,25,04,15,16.10
2016,08,25,04,16,16.10
2016,08,25,04,17,16.10
2016,08,25,04,18,16.10
2016,08,25,04,19,16.10
2016,08,25,04,20,16.10
2016,08,25,04,21,16.10
2016,08,25,04,22,16.10
2016,08,25,04,23,16.10
2016,08,25,04,24,16.20
2016,08,25,04,25,16.20
2016,08,25,04,26,16.20
2016,08,25,04,27,16.20
2016,08,25,04,28,16.20
2016,08,25,04,29,16.20
2016,08,25,04,30,16.10
2016,08,25,04,31,16.10
2016,08,25,04,32,16.10
2016,08,25,04,33,16.10
2016,08,25,04,34,16.10
2016,08,25,04,35,16.10
2016,08,25,04,36,16.10
2016,08,25,04,37,16.00
2016,08,25,04,38,16.00
2016,08,25,04,39,16.00
2016,08,25,04,40,15.90
2016,08,25,04,41,15.80
2016,08,25,04,42,15.80
2016,08,25,04,43,15.80
2016,08,25,04,44,15.80
2016,08,25,04,45,15.70
2016,08,25,04,46,15.70
2016,08,25,04,47,15.70
2016,08,25,04,48,15.60
2016,08,25,04,49,15.60
2016,08,25,04,50,15.60
2016,08,25,04,51,15.60
2016,08,25,04,52,15.60
2016,08,25,04,53,15.50
2016,08,25,04,54,15.60
2016,08,25,04,55,15.60
2016,08,25,04,56,15.60
2016,08,25,04,57,15.60
2016,08,25,04,58,15.60
2016,08,25,04,59,15.60
2016,08,25,05,00,15.70
2016,08,25,05,01,15.70
2016,08,25,05,02,15.70
2016,08,25,05,03,15.70
2016,08,25,05,04,15.60
2016,08,25,05,05,15.60
2016,08,25,05,06,15.60
2016,08,25,05,07,15.60
2016,08,25,05,08,15.60
2016,08,25,05,09,15.60
2016,08,25,05,10,15.60
2016,08,25,05,11,15.60
2016,08,25,05,12,15.60
2016,08,25,05,13,15.60
2016,08,25,05,14,15.50
2016,08,25,05,15,15.50
2016,08,25,05,16,15.50
2016,08,25,05,17,15.50
2016,08,25,05,18,15.50
2016,08,25,05,19,15.40
2016,08,25,05,20,15.40
2016,08,25,05,21,15.40
2016,08,25,05,22,15.30
2016,08,25,05,23,15.30
2016,08,25,05,24,15.30
2016,08,25,05,25,15.30
2016,08,25,05,26,15.20
2016,08,25,05,27,15.20
2016,08,25,05,28,15.20
2016,08,25,05,29,15.10
2016,08,25,05,30,15.10
2016,08,25,05,31,15.10
2016,08,25,05,32,15.00
2016,08,25,05,33,15.00
2016,08,25,05,34,14.90
2016,08,25,05,35,14.80
2016,08,25,05,36,14.70
2016,08,25,05,37,14.70
2016,08,25,05,38,14.60
2016,08,25,05,39,14.60
2016,08,25,05,40,14.50
2016,08,25,05,41,14.50
2016,08,25,05,42,14.50
2016,08,25,05,43,14.40
2016,08,25,05,44,14.40
2016,08,25,05,45,14.30
2016,08,25,05,46,14.30
2016,08,25,05,47,14.20
2016,08,25,05,48,14.20
2016,08,25,05,49,14.20
2016,08,25,05,50,14.20
2016,08,25,05,51,14.20
2016,08,25,05,52,14.20
2016,08,25,05,53,14.20
2016,08,25,05,54,14.20
2016,08,25,05,55,14.20
2016,08,25,05,56,14.20
2016,08,25,05,57,14.10
2016,08,25,05,58,14.10
2016,08,25,05,59,14.10
2016,08,25,06,00,14.10
2016,08,25,06,01,14.00
2016,08,25,06,02,14.00
2016,08,25,06,03,14.00
2016,08,25,06,04,14.00
2016,08,25,06,05,14.00
2016,08,25,06,06,14.00
2016,08,25,06,07,14.00
2016,08,25,06,08,14.00
2016,08,25,06,09,14.00
2016,08,25,06,10,14.00
2016,08,25,06,11,14.00
2016,08,25,06,12,14.00
2016,08,25,06,13,14.00
2016,08,25,06,14,13.90
2016,08,25,06,15,13.90
2016,08,25,06,16,13.90
2016,08,25,06,17,13.90
2016,08,25,06,18,13.90
2016,08,25,06,19,13.90
2016,08,25,06,20,14.00
2016,08,25,06,21,14.00
2016,08,25,06,22,14.10
2016,08,25,06,23,14.10
2016,08,25,06,24,14.10
2016,08,25,06,25,14.10
2016,08,25,06,26,14.20
2016,08,25,06,27,14.20
2016,08,25,06,28,14.20
2016,08,25,06,29,14.20
2016,08,25,06,30,14.20
2016,08,25,06,31,14.20
2016,08,25,06,32,14.20
2016,08,25,06,33,14.20
2016,08,25,06,34,14.10
2016,08,25,06,35,14.10
2016,08,25,06,36,14.10
2016,08,25,06,37,14.10
2016,08,25,06,38,14.10
2016,08,25,06,39,14.10
2016,08,25,06,40,14.10
2016,08,25,06,41,14.10
2016,08,25,06,42,14.10
2016,08,25,06,43,14.00
2016,08,25,06,44,14.00
2016,08,25,06,45,14.00
2016,08,25,06,46,14.00
2016,08,25,06,47,14.00
2016,08,25,06,48,14.10
2016,08,25,06,49,14.10
2016,08,25,06,50,14.10
2016,08,25,06,51,14.20
2016,08,25,06,52,14.20
2016,08,25,06,53,14.20
2016,08,25,06,54,14.20
2016,08,25,06,55,14.30
2016,08,25,06,56,14.30
2016,08,25,06,57,14.40
2016,08,25,06,58,14.40
2016,08,25,06,59,14.50
2016,08,25,07,00,14.50
2016,08,25,07,01,14.60
2016,08,25,07,02,14.60
2016,08,25,07,03,14.70
2016,08,25,07,04,14.70
2016,08,25,07,05,14.80
2016,08,25,07,06,14.80
2016,08,25,07,07,14.80
2016,08,25,07,08,14.80
2016,08,25,07,09,14.90
2016,08,25,07,10,15.00
2016,08,25,07,11,15.10
2016,08,25,07,12,15.10
2016,08,25,07,13,15.20
2016,08,25,07,14,15.30
2016,08,25,07,15,15.30
2016,08,25,07,16,15.40
2016,08,25,07,17,15.50
2016,08,25,07,18,15.50
2016,08,25,07,19,15.50
2016,08,25,07,20,15.60
2016,08,25,07,21,15.60
2016,08,25,07,22,15.60
2016,08,25,07,23,15.70
2016,08,25,07,24,15.80
2016,08,25,07,25,15.80
2016,08,25,07,26,15.90
2016,08,25,07,27,16.00
2016,08,25,07,28,16.10
2016,08,25,07,29,16.10
2016,08,25,07,30,16.20
2016,08,25,07,31,16.30
2016,08,25,07,32,16.40
2016,08,25,07,33,16.50
2016,08,25,07,34,16.60
2016,08,25,07,35,16.70
2016,08,25,07,36,16.70
2016,08,25,07,37,16.80
2016,08,25,07,38,16.90
2016,08,25,07,39,16.90
2016,08,25,07,40,17.00
2016,08,25,07,41,17.00
2016,08,25,07,42,17.00
2016,08,25,07,43,17.10
2016,08,25,07,44,17.10
2016,08,25,07,45,17.10
2016,08,25,07,46,17.10
2016,08,25,07,47,17.20
2016,08,25,07,48,17.20
2016,08,25,07,49,17.20
2016,08,25,07,50,17.20
2016,08,25,07,51,17.20
2016,08,25,07,52,17.20
2016,08,25,07,53,17.20
2016,08,25,07,54,17.20
2016,08,25,07,55,17.20
2016,08,25,07,56,17.20
2016,08,25,07,57,17.20
2016,08,25,07,58,17.30
2016,08,25,07,59,17.30
2016,08,25,08,00,17.40
2016,08,25,08,01,17.40
2016,08,25,08,02,17.50
2016,08,25,08,03,17.50
2016,08,25,08,04,17.60
2016,08,25,08,05,17.60
2016,08,25,08,06,17.70
2016,08,25,08,07,17.70
2016,08,25,08,08,17.70
2016,08,25,08,09,17.70
2016,08,25,08,10,17.80
2016,08,25,08,11,17.70
2016,08,25,08,12,17.70
2016,08,25,08,13,17.70
2016,08,25,08,14,17.60
2016,08,25,08,15,17.50
2016,08,25,08,16,17.50
2016,08,25,08,17,17.30
2016,08,25,08,18,17.20
2016,08,25,08,19,16.90
2016,08,25,08,20,16.70
2016,08,25,08,21,16.50
2016,08,25,08,22,16.40
2016,08,25,08,23,16.30
2016,08,25,08,24,16.20
2016,08,25,08,25,16.10
2016,08,25,08,26,16.10
2016,08,25,08,27,16.10
2016,08,25,08,28,16.10
2016,08,25,08,29,16.00
2016,08,25,08,30,15.90
2016,08,25,08,31,15.90
2016,08,25,08,32,15.90
2016,08,25,08,33,15.90
2016,08,25,08,34,15.90
2016,08,25,08,35,15.80
2016,08,25,08,36,15.80
2016,08,25,08,37,15.80
2016,08,25,08,38,15.80
2016,08,25,08,39,15.80
2016,08,25,08,40,15.70
2016,08,25,08,41,15.70
2016,08,25,08,42,15.70
2016,08,25,08,43,15.80
2016,08,25,08,44,15.80
2016,08,25,08,45,15.80
2016,08,25,08,46,15.70
2016,08,25,08,47,15.70
2016,08,25,08,48,15.70
2016,08,25,08,49,15.70
2016,08,25,08,50,15.70
2016,08,25,08,51,15.70
2016,08,25,08,52,15.70
2016,08,25,08,53,15.70
2016,08,25,08,54,15.70
2016,08,25,08,55,15.70
2016,08,25,08,56,15.80
2016,08,25,08,57,15.80
2016,08,25,08,58,15.80
2016,08,25,08,59,15.90
2016,08,25,09,00,15.90
2016,08,25,09,01,16.10
2016,08,25,09,02,16.10
2016,08,25,09,03,16.10
2016,08,25,09,04,16.10
2016,08,25,09,05,16.20
2016,08,25,09,06,16.20
2016,08,25,09,07,16.30
2016,08,25,09,08,16.30
2016,08,25,09,09,16.40
2016,08,25,09,10,16.40
2016,08,25,09,11,16.40
2016,08,25,09,12,16.40
2016,08,25,09,13,16.50
2016,08,25,09,14,16.60
2016,08,25,09,15,16.60
2016,08,25,09,16,16.70
2016,08,25,09,17,16.70
2016,08,25,09,18,16.70
2016,08,25,09,19,16.70
2016,08,25,09,20,16.70
2016,08,25,09,21,16.80
2016,08,25,09,22,16.80
2016,08,25,09,23,16.90
2016,08,25,09,24,16.90
2016,08,25,09,25,17.00
2016,08,25,09,26,17.10
2016,08,25,09,27,17.20
2016,08,25,09,28,17.30
2016,08,25,09,29,17.50
2016,08,25,09,30,17.70
2016,08,25,09,31,17.80
2016,08,25,09,32,17.90
2016,08,25,09,33,18.10
2016,08,25,09,34,18.20
2016,08,25,09,35,18.20
2016,08,25,09,36,18.30
2016,08,25,09,37,18.40
2016,08,25,09,38,18.50
2016,08,25,09,39,18.50
2016,08,25,09,40,18.50
2016,08,25,09,41,18.50
2016,08,25,09,42,18.60
2016,08,25,09,43,18.70
2016,08,25,09,44,18.80
2016,08,25,09,45,18.90
2016,08,25,09,46,19.00
2016,08,25,09,47,19.10
2016,08,25,09,48,19.10
2016,08,25,09,49,19.20
2016,08,25,09,50,19.30
2016,08,25,09,51,19.30
2016,08,25,09,52,19.40
2016,08,25,09,53,19.50
2016,08,25,09,54,19.60
2016,08,25,09,55,19.70
2016,08,25,09,56,19.80
2016,08,25,09,57,19.90
2016,08,25,09,58,19.90
2016,08,25,09,59,20.00
2016,08,25,10,00,20.10
2016,08,25,10,01,20.20
2016,08,25,10,02,20.30
2016,08,25,10,03,20.40
2016,08,25,10,04,20.50
2016,08,25,10,05,20.50
2016,08,25,10,06,20.50
2016,08,25,10,07,20.50
2016,08,25,10,08,20.50
2016,08,25,10,09,20.40
2016,08,25,10,10,20.30
2016,08,25,10,11,20.30
2016,08,25,10,12,20.30
2016,08,25,10,13,20.30
2016,08,25,10,14,20.40
2016,08,25,10,15,20.40
2016,08,25,10,16,20.50
2016,08,25,10,17,20.50
2016,08,25,10,18,20.50
2016,08,25,10,19,20.50
2016,08,25,10,20,20.50
2016,08,25,10,21,20.50
2016,08,25,10,22,20.50
2016,08,25,10,23,20.50
2016,08,25,10,24,20.50
2016,08,25,10,25,20.50
2016,08,25,10,26,20.50
2016,08,25,10,27,20.50
2016,08,25,10,28,20.40
2016,08,25,10,29,20.30
2016,08,25,10,30,20.20
2016,08,25,10,31,20.00
2016,08,25,10,32,19.80
2016,08,25,10,33,19.60
2016,08,25,10,34,19.40
2016,08,25,10,35,19.30
2016,08,25,10,36,19.20
2016,08,25,10,37,19.20
2016,08,25,10,38,19.10
2016,08,25,10,39,19.10
2016,08,25,10,40,19.10
2016,08,25,10,41,19.10
2016,08,25,10,42,19.10
2016,08,25,10,43,19.20
2016,08,25,10,44,19.30
2016,08,25,10,45,19.40
2016,08,25,10,46,19.50
2016,08,25,10,47,19.50
2016,08,25,10,48,19.60
2016,08,25,10,49,19.60
2016,08,25,10,50,19.70
2016,08,25,10,51,19.70
2016,08,25,10,52,19.70
2016,08,25,10,53,19.70
2016,08,25,10,54,19.60
2016,08,25,10,55,19.60
2016,08,25,10,56,19.60
2016,08,25,10,57,19.70
2016,08,25,10,58,19.70
2016,08,25,10,59,19.70
2016,08,25,11,00,19.70
2016,08,25,11,01,19.70
2016,08,25,11,02,19.70
2016,08,25,11,03,19.70
2016,08,25,11,04,19.80
2016,08,25,11,05,19.70
2016,08,25,11,06,19.60
2016,08,25,11,07,19.60
2016,08,25,11,08,19.40
2016,08,25,11,09,19.30
2016,08,25,11,10,19.20
2016,08,25,11,11,19.10
2016,08,25,11,12,19.10
2016,08,25,11,13,18.90
2016,08,25,11,14,18.90
2016,08,25,11,15,18.80
2016,08,25,11,16,18.80
2016,08,25,11,17,18.70
2016,08,25,11,18,18.70
2016,08,25,11,19,18.70
2016,08,25,11,20,18.60
2016,08,25,11,21,18.40
2016,08,25,11,22,18.30
2016,08,25,11,23,18.20
2016,08,25,11,24,18.20
2016,08,25,11,25,18.20
2016,08,25,11,26,18.20
2016,08,25,11,27,18.20
2016,08,25,11,28,18.20
2016,08,25,11,29,18.30
2016,08,25,11,30,18.30
2016,08,25,11,31,18.40
2016,08,25,11,32,18.50
2016,08,25,11,33,18.60
2016,08,25,11,34,18.70
2016,08,25,11,35,18.80
2016,08,25,11,36,18.90
2016,08,25,11,37,19.10
2016,08,25,11,38,19.20
2016,08,25,11,39,19.20
2016,08,25,11,40,19.10
2016,08,25,11,41,19.10
2016,08,25,11,42,19.00
2016,08,25,11,43,18.90
2016,08,25,11,44,18.90
2016,08,25,11,45,18.90
2016,08,25,11,46,18.90
2016,08,25,11,47,18.90
2016,08,25,11,48,18.90
2016,08,25,11,49,18.80
2016,08,25,11,50,18.80
2016,08,25,11,51,18.70
2016,08,25,11,52,18.60
2016,08,25,11,53,18.50
2016,08,25,11,54,18.40
2016,08,25,11,55,18.40
2016,08,25,11,56,18.30
2016,08,25,11,57,18.30
2016,08,25,11,58,18.30
2016,08,25,11,59,18.30
2016,08,25,12,00,18.30
2016,08,25,12,01,18.40
2016,08,25,12,02,18.40
2016,08,25,12,03,18.40
2016,08,25,12,04,18.40
2016,08,25,12,05,18.40
2016,08,25,12,06,18.40
2016,08,25,12,07,18.40
2016,08,25,12,08,18.50
2016,08,25,12,09,18.60
2016,08,25,12,10,18.60
2016,08,25,12,11,18.60
2016,08,25,12,12,18.70
2016,08,25,12,13,18.80
2016,08,25,12,14,18.90
2016,08,25,12,15,18.90
2016,08,25,12,16,19.10
2016,08,25,12,17,19.10
2016,08,25,12,18,19.20
2016,08,25,12,19,19.30
2016,08,25,12,20,19.30
2016,08,25,12,21,19.40
2016,08,25,12,22,19.40
2016,08,25,12,23,19.40
2016,08,25,12,24,19.40
2016,08,25,12,25,19.40
2016,08,25,12,26,19.40
2016,08,25,12,27,19.50
2016,08,25,12,28,19.60
2016,08,25,12,29,19.70
2016,08,25,12,30,19.70
2016,08,25,12,31,19.90
2016,08,25,12,32,20.00
2016,08,25,12,33,20.10
2016,08,25,12,34,20.20
2016,08,25,12,35,20.20
2016,08,25,12,36,20.20
2016,08,25,12,37,20.20
2016,08,25,12,38,20.20
2016,08,25,12,39,20.30
2016,08,25,12,40,20.40
2016,08,25,12,41,20.50
2016,08,25,12,42,20.60
2016,08,25,12,43,20.80
2016,08,25,12,44,20.90
2016,08,25,12,45,21.10
2016,08,25,12,46,21.20
2016,08,25,12,47,21.30
2016,08,25,12,48,21.30
2016,08,25,12,49,21.30
2016,08,25,12,50,21.40
2016,08,25,12,51,21.50
2016,08,25,12,52,21.60
2016,08,25,12,53,21.60
2016,08,25,12,54,21.70
2016,08,25,12,55,21.80
2016,08,25,12,56,21.90
2016,08,25,12,57,22.00
2016,08,25,12,58,22.00
2016,08,25,12,59,22.00
2016,08,25,13,00,22.10
2016,08,25,13,01,22.10
2016,08,25,13,02,22.10
2016,08,25,13,03,22.10
2016,08,25,13,04,22.10
2016,08,25,13,05,22.00
2016,08,25,13,06,21.80
2016,08,25,13,07,21.60
2016,08,25,13,08,21.40
2016,08,25,13,09,21.30
2016,08,25,13,10,21.20
2016,08,25,13,11,21.10
2016,08,25,13,12,20.90
2016,08,25,13,13,20.80
2016,08,25,13,14,20.60
2016,08,25,13,15,20.50
2016,08,25,13,16,20.50
2016,08,25,13,17,20.40
2016,08,25,13,18,20.40
2016,08,25,13,19,20.30
2016,08,25,13,20,20.30
2016,08,25,13,21,20.20
2016,08,25,13,22,20.20
2016,08,25,13,23,20.00
2016,08,25,13,24,19.90
2016,08,25,13,25,19.80
2016,08,25,13,26,19.70
2016,08,25,13,27,19.70
2016,08,25,13,28,19.70
2016,08,25,13,29,19.70
2016,08,25,13,30,19.70
2016,08,25,13,31,19.80
2016,08,25,13,32,19.90
2016,08,25,13,33,19.90
2016,08,25,13,34,19.90
2016,08,25,13,35,19.90
2016,08,25,13,36,19.90
2016,08,25,13,37,19.90
2016,08,25,13,38,19.90
2016,08,25,13,39,19.90
2016,08,25,13,40,19.70
2016,08,25,13,41,19.70
2016,08,25,13,42,19.70
2016,08,25,13,43,19.80
2016,08,25,13,44,19.80
2016,08,25,13,45,19.80
2016,08,25,13,46,19.80
2016,08,25,13,47,19.90
2016,08,25,13,48,20.20
2016,08,25,13,49,20.30
2016,08,25,13,50,20.20
2016,08,25,13,51,20.20
2016,08,25,13,52,20.20
2016,08,25,13,53,20.30
2016,08,25,13,54,20.30
2016,08,25,13,55,20.40
2016,08,25,13,56,20.40
2016,08,25,13,57,20.40
2016,08,25,13,58,20.40
2016,08,25,13,59,20.50
2016,08,25,14,00,20.50
2016,08,25,14,01,20.40
2016,08,25,14,02,20.30
2016,08,25,14,03,20.30
2016,08,25,14,04,20.20
2016,08,25,14,05,20.20
2016,08,25,14,06,20.20
2016,08,25,14,07,20.20
2016,08,25,14,08,20.30
2016,08,25,14,09,20.40
2016,08,25,14,10,20.60
2016,08,25,14,11,20.70
2016,08,25,14,12,20.70
2016,08,25,14,13,20.70
2016,08,25,14,14,20.70
2016,08,25,14,15,20.60
2016,08,25,14,16,20.50
2016,08,25,14,17,20.50
2016,08,25,14,18,20.60
2016,08,25,14,19,20.60
2016,08,25,14,20,20.60
2016,08,25,14,21,20.60
2016,08,25,14,22,20.60
2016,08,25,14,23,20.60
2016,08,25,14,24,20.60
2016,08,25,14,25,20.70
2016,08,25,14,26,20.60
2016,08,25,14,27,20.60
2016,08,25,14,28,20.60
2016,08,25,14,29,20.60
2016,08,25,14,30,20.60
2016,08,25,14,31,20.60
2016,08,25,14,32,20.60
2016,08,25,14,33,20.70
2016,08,25,14,34,20.70
2016,08,25,14,35,20.80
2016,08,25,14,36,20.90
2016,08,25,14,37,21.00
2016,08,25,14,38,21.00
2016,08,25,14,39,21.00
2016,08,25,14,40,21.10
2016,08,25,14,41,21.20
2016,08,25,14,42,21.30
2016,08,25,14,43,21.30
2016,08,25,14,44,21.30
2016,08,25,14,45,21.30
2016,08,25,14,46,21.30
2016,08,25,14,47,21.30
2016,08,25,14,48,21.30
2016,08,25,14,49,21.30
2016,08,25,14,50,21.30
2016,08,25,14,51,21.30
2016,08,25,14,52,21.30
2016,08,25,14,53,21.30
2016,08,25,14,54,21.30
2016,08,25,14,55,21.30
2016,08,25,14,56,21.30
2016,08,25,14,57,21.30
2016,08,25,14,58,21.30
2016,08,25,14,59,21.30
2016,08,25,15,00,21.30
2016,08,25,15,01,21.30
2016,08,25,15,02,21.30
2016,08,25,15,03,21.30
2016,08,25,15,04,21.30
2016,08,25,15,05,21.30
2016,08,25,15,06,21.30
2016,08,25,15,07,21.30
2016,08,25,15,08,21.30
2016,08,25,15,09,21.30
2016,08,25,15,10,21.30
2016,08,25,15,11,21.30
2016,08,25,15,12,21.30
2016,08,25,15,13,21.30
2016,08,25,15,14,21.30
2016,08,25,15,15,21.20
2016,08,25,15,16,21.30
2016,08,25,15,17,21.30
2016,08,25,15,18,21.30
2016,08,25,15,19,21.30
2016,08,25,15,20,21.40
2016,08,25,15,21,21.40
2016,08,25,15,22,21.50
2016,08,25,15,23,21.60
2016,08,25,15,24,21.60
2016,08,25,15,25,21.60
2016,08,25,15,26,21.50
2016,08,25,15,27,21.30
2016,08,25,15,28,21.30
2016,08,25,15,29,21.30
2016,08,25,15,30,21.40
2016,08,25,15,31,21.50
2016,08,25,15,32,21.60
2016,08,25,15,33,21.70
2016,08,25,15,34,21.70
2016,08,25,15,35,21.70
2016,08,25,15,36,21.80
2016,08,25,15,37,21.80
2016,08,25,15,38,21.90
2016,08,25,15,39,21.90
2016,08,25,15,40,21.90
2016,08,25,15,41,21.90
2016,08,25,15,42,21.90
2016,08,25,15,43,21.80
2016,08,25,15,44,21.80
2016,08,25,15,45,21.80
2016,08,25,15,46,22.00
2016,08,25,15,47,22.00
2016,08,25,15,48,22.10
2016,08,25,15,49,22.10
2016,08,25,15,50,22.10
2016,08,25,15,51,22.10
2016,08,25,15,52,22.10
2016,08,25,15,53,22.10
2016,08,25,15,54,22.00
2016,08,25,15,55,22.00
2016,08,25,15,56,22.00
2016,08,25,15,57,22.00
2016,08,25,15,58,22.00
2016,08,25,15,59,21.90
2016,08,25,16,00,22.00
2016,08,25,16,01,22.00
2016,08,25,16,02,22.00
2016,08,25,16,03,22.10
2016,08,25,16,04,22.20
2016,08,25,16,05,22.20
2016,08,25,16,06,22.30
2016,08,25,16,07,22.30
2016,08,25,16,08,22.40
2016,08,25,16,09,22.50
2016,08,25,16,10,22.60
2016,08,25,16,11,22.60
2016,08,25,16,12,22.60
2016,08,25,16,13,22.70
2016,08,25,16,14,22.70
2016,08,25,16,15,22.80
2016,08,25,16,16,22.80
2016,08,25,16,17,22.80
2016,08,25,16,18,22.90
2016,08,25,16,19,22.90
2016,08,25,16,20,23.00
2016,08,25,16,21,23.10
2016,08,25,16,22,23.10
2016,08,25,16,23,23.20
2016,08,25,16,24,23.20
2016,08,25,16,25,23.20
2016,08,25,16,26,23.30
2016,08,25,16,27,23.30
2016,08,25,16,28,23.30
2016,08,25,16,29,23.30
2016,08,25,16,30,23.40
2016,08,25,16,31,23.30
2016,08,25,16,32,23.30
2016,08,25,16,33,23.30
2016,08,25,16,34,23.30
2016,08,25,16,35,23.40
2016,08,25,16,36,23.50
2016,08,25,16,37,23.60
2016,08,25,16,38,23.70
2016,08,25,16,39,23.80
2016,08,25,16,40,23.90
2016,08,25,16,41,24.00
2016,08,25,16,42,24.10
2016,08,25,16,43,24.10
2016,08,25,16,44,24.20
2016,08,25,16,45,24.20
2016,08,25,16,46,24.30
2016,08,25,16,47,24.40
2016,08,25,16,48,24.50
2016,08,25,16,49,24.70
2016,08,25,16,50,24.80
2016,08,25,16,51,24.90
2016,08,25,16,52,25.00
2016,08,25,16,53,25.10
2016,08,25,16,54,25.30
2016,08,25,16,55,25.40
2016,08,25,16,56,25.40
2016,08,25,16,57,25.50
2016,08,25,16,58,25.50
2016,08,25,16,59,25.50
2016,08,25,17,00,25.40
2016,08,25,17,01,25.30
2016,08,25,17,02,25.20
2016,08,25,17,03,25.20
2016,08,25,17,04,25.10
2016,08,25,17,05,24.90
2016,08,25,17,06,24.80
2016,08,25,17,07,24.70
2016,08,25,17,08,24.60
2016,08,25,17,09,24.60
2016,08,25,17,10,24.50
2016,08,25,17,11,24.50
2016,08,25,17,12,24.60
2016,08,25,17,13,24.60
2016,08,25,17,14,24.70
2016,08,25,17,15,24.80
2016,08,25,17,16,24.90
2016,08,25,17,17,25.00
2016,08,25,17,18,25.10
2016,08,25,17,19,25.20